Погода в Елабуге

Погода в Елабуге : погода сейчас, прогноз погоды и архив. Всё, что Вы хотите узнать о погоде в Елабуге!

Поиск расширенной информации на нашем сайте:

Другие новости

Новости СМИ2

Главная страница сайта

Новости сайта

03.07.2017

Напоминаем, что на нашем специализированном сайте Метеоцентр.Азия вы можете получить высокодетализированные автоматические прогнозы погоды по пунктам России, СНГ и мира в авиационном формате (включающие направление и скорость ветра, видимость, явления погоды, количество и форму облачности, нижнюю и верхнюю границу облачности).


Погода в Елабуге - сегодня

Время (UTC), дата Ветер
(°,м/с) 
Видим.   Явления Облачность Т
(°С)
Тd
(°С)
f(%) Тe
(°С)
Pmin
(гПа)
dP
(гПа)
Po
(мм)
O2
(г/м3)
Тmin Tmax R s Состояние
почвы
12 15.06.18 тихо ()   20000 м    10/6 600 м кучево-дожд., средняя, верхняя 
[Cb cap|Ac trans|Ci sp]
+16.6 +13.2 80 +22  1014.3  0.2  755  284           
15 15.06.18 тихо ()   20000 м    10/8 750 м кучево-дожд., средняя, верхняя 
[Cb cap|Ac trans|Ci fib]
+16.3 +14 86 +23  1013.9  -0.5  755  284           
21 15.06.18 150 (ЮВ) 20000 м  {ливн. осадки}  10/10 800 м кучево-дожд. 
[Cb cap]
+13.9 +11.2 84 +17  1013.4  -0.3  755  287  +13.9    0.4    влажная 
03 16.06.18 270 (З) 20000 м    10/6 600 м кучево-дожд., средняя, верхняя 
[Cb cap|Ac trans|Ci sp]
+18.6 +13.3 71 +26  1012.4  -0.8  754  282           
06 16.06.18 280 (З) 20000 м    8/4 600 м кучево-дожд., средняя, верхняя 
[Cb cap|Ac trans|Ci fib]
+21.5 +13.7 61 +28  1009.7  -2.6  752  278           
12 16.06.18 070 (В) 20000 м    10/10 750 м кучево-дожд. 
[Cb cap]
+18.2 +13.2 73 +25  1006.5  -1.2  749  281           
15 16.06.18 100 (В) 20000 м    10/10 720 м кучево-дожд. 
[Cb cap]
+17.4 +13.2 76 +24  1004.6  -1.9  748  281           
21 16.06.18 160 (Ю) 5{12}  10 км  ливневой дождь  10/10 600 м кучево-дожд. 
[Cb cap]
+13.8 +11.8 88 +17  1002.9  -0.6  747  284  +13.8      влажная 
03 17.06.18 180 (Ю) 10 км  {ливн. осадки}  9/6 600 м кучево-дожд., средняя 
[Cb cap|Ac trans]
+13.5 +12.3 92 +17  1003.4  0.1  747  284           
12 17.06.18 170 (Ю) 20000 м    3/1 1000 м средняя 
[Sc|Ac trans]
+14.5 +13.5 94 +20  1004.3  748  283           
15 17.06.18 160 (Ю) 20000 м    10/6 600 м кучево-дожд., средняя, верхняя 
[Cb cap|Ac trans|Ci fib]
+13.3 +11.9 91 +17  1004.3  0.1  748  285           
18 17.06.18 200 (Ю) 20000 м    9/4 600 м кучево-дожд., средняя 
[Cb cap|Ac trans]
+12.6 +11.7 94 +18  1004.5  0.2  748  286           
21 17.06.18 150 (ЮВ) 20000 м  {ливн. осадки}  8/3 600 м кучево-дожд., средняя 
[Cb cap|Ac trans]
+13.8 +12.9 94 +18  1004.7  0.2  748  284  +12.5      влажная 
00 18.06.18 180 (Ю) 20000 м  {ливн. осадки}  10/3 600 м кучево-дожд., средняя, верхняя 
[Cb cap|Ac trans|Ci fib]
+19.3 +15.9 81 +30  1004.5  748  278           
03 18.06.18 220 (ЮЗ) 20000 м    9/3 600 м кучево-дожд., средняя, верхняя 
[Cb cap|Ac trans|Ci fib]
+23.3 +16.6 66 +35  1003.8  -0.6  748  274           
06 18.06.18 200 (Ю) 20000 м    9/8 750 м кучево-дожд., средняя 
[Cb cap|Ac trans]
+23.8 +16.2 62 +35  1002.5  -1.3  747  273           
09 18.06.18 тихо ()   10 км  слаб. ливневой дождь  10/10 720 м кучево-дожд. 
[Cb cap]
+20.7 +17.2 80 +34  1001.9  -0.6  746  276    +24.5       
18 18.06.18 150 (ЮВ) 1000 м  ливневой дождь  10/10 600 м кучево-дожд. 
[Cb cap]
+16 +15.3 96 +26  997.3  -2.7  743  279           
21 18.06.18 170 (Ю) 5{11}  20000 м  {ливн. осадки}  10/10 660 м кучево-дожд. 
[Cb cap]
+17.9 +16.6 92 +30  996.5  -0.7  749  279  +16    22    влажная 
12 19.06.18 220 (ЮЗ) 2{10}  20000 м    9/6 600 м кучево-дожд., средняя 
[Cb cap|Ac trans]
+19.7 +15.6 77 +31  1000.1  1.4  745  277           
15 19.06.18 170 (Ю) 20000 м    10/6 600 м кучево-дожд., средняя, верхняя 
[Cb cap|Ac trans|Ci fib]
+17.9 +16.1 89 +29  1000.2  0.1  745  278           
21 19.06.18 170 (Ю) 10 км  слаб. ливневой дождь  10/10 660 м кучево-дожд. 
[Cb cap]
+16.3 +15.6 96 +27  1000.2  745  280  +15.6      влажная 
06 20.06.18 150 (ЮВ) 20000 м  в посл. час ливневой дождь  9/8 600 м кучево-дожд., средняя 
[Cb cap|Ac trans]
+17.6 +16.4 93 +30  998.2  -1.3  743  278           
21 20.06.18 070 (В) 10 км  {ливн. осадки}  10/10 600 м кучево-дожд. 
[Cb cap]
+15.7 +15 96 +26  995.7  0.1  741  279  +14.8      влажная 
09 21.06.18 010 (С) 20000 м  {морось}  10/10 500 м 
[St]
+13.4 +12.6 95 +18  996.9  0.6  742  283    +16.9     
Время (UTC), дата Ветер
(°,м/с) 
Видим.   Явления Облачность Т
(°С)
Тd
(°С)
f(%) Тe
(°С)
Pmin
(гПа)
dP
(гПа)
Po
(мм)
O2
(г/м3)
Тmin Tmax R s Состояние
почвы

Для получения пояснительной информации подведите курсор к названию столбца.

ПОГОДА в Елабуге - архив

Всё, что Вы хотите узнать о погоде в Елабуге - удобно и подробно!

Выберите нужную дату (начиная с 1 января 2015* года) и нажмите кнопку "Найти".
Будут отображены архивные сводки погоды по пункту Елабуга, начиная с указанной даты.


Отображать данные в формате CSV (для использования в таблицах Excel)


Внимание! Наш архив погоды предназначен исключительно для личного некоммерческого использования в познавательных целях. Если Вам необходимы официальные справки о состоянии погоды (для производственных, юридических, коммерческих и т.п. целей), обращайтесь в органы Росгидромета.

*Примечание: данная дата относится к архиву по метеостанциям СССР (Россия, СНГ, Балтия).
Архив по метеостанциям Зарубежной Европы и Азии (кроме Китая) хранится 10 дней, по другим регионам земного шара (Китай, Африка, Америка, Австралия, Океания) - 1 день.

Елабуга - район местоположения метеостанции


Название, широта, долгота, высота метеостанции:
Елабуга 48.8°ш. 135.9°д. 58 м над ур. моря [Российская Федерация]

Дополнительная информация

В oтличие oт бoльшинства пoгoдных сайтoв мы публикуем пoдрoбную метеoинфoрмацию в детальнoм прoфессиoнальнoм фoрмате.

Характеристики температуры и влажнoсти вoздуха измеряются на высoте 2 м в тени вдали oт зданий и деревьев.
Скoрoсть ветра измеряется на высoте 10 м (на урoвне рoста челoвека скoрoсть ветра ниже в 1.5-2 раза). Если метеoстанция нахoдится в гoрoде или в лесу, тo скoрoсть ветра занижена на 2-4 м/с пo сравнению с oткрытым местoм. Скoрoсть ветра над акватoриями крупных рек и oзёр, а также на вершинах хoлмoв на 2-5 м/с выше, чем в oбычных услoвиях.
Атмoсфернoе давление в разных тoчках местнoсти мoжет значительнo oтличаться oт давления на метеoстанции, в зависимoсти oт услoвий рельефа (при пoдъёме на 10 м давление пoнижается примернo на 1 мм рт.ст.).